#timestamp,LO_Frequency,Hit,StdDev 
1507590015.6,286047001.7,N
1507590035.4,286047001.3,N
1507590055.2,286046999.9,N
1507590075.0,286047002.4,N
1507590076.0,286047002.4,N
1507590095.8,286046998.5,N
1507590115.6,286047001.5,N
1507590135.4,286047000.6,N
1507590155.3,286046998.8,N
1507590175.1,286047001.0,N
1507590195.8,286047000.6,N
1507590215.7,286047000.1,N
1507590235.5,286047001.2,N
1507590255.3,286047002.6,N
1507590275.2,286047002.7,N
1507590295.9,286047000.6,N
1507590315.7,286046998.3,N
1507590335.6,286047003.4,N
1507590355.4,286047006.1,Y
1507590375.2,286047004.8,P
1507590395.1,286047007.9,P
1507590396.0,286047007.9,N
1507590415.8,286047012.2,Y
1507590435.6,286047008.5,P
1507590455.5,286047007.5,P
1507590475.3,286047002.9,N
1507590495.1,286047001.3,N
1507590515.9,286046998.3,N
1507590535.7,286047000.0,N
1507590555.5,286046998.6,N
1507590575.4,286047000.6,N
1507590595.2,286046998.4,N
1507590615.0,286046995.4,N
1507590615.9,286046995.4,N
1507590635.8,286046993.5,N
1507590655.6,286046996.2,N
1507590675.4,286046999.6,N
1507590695.2,286047001.1,N
1507590715.1,286047002.3,N
1507590716.0,286047002.3,N
1507590735.8,286047000.5,N
1507590755.6,286046996.8,N
1507590775.5,286046997.3,N
1507590795.3,286047002.7,N
1507590815.1,286046999.1,N
1507590835.9,286046998.6,N
1507590855.7,286047002.7,N
1507590875.5,286046999.5,N
1507590895.4,286046994.3,N
1507590915.2,286046994.4,N
1507590935.0,286046990.8,N
1507590935.9,286046990.8,N
1507590955.8,286046992.6,N
1507590975.6,286046992.1,N
1507590995.4,286046992.4,N
1507591015.2,286046993.4,N
1507591035.1,286046993.3,N
1507591036.0,286046993.3,N
1507591055.8,286046993.1,N
1507591075.7,286046987.1,Y
1507591095.5,286046989.6,P
1507591115.3,286046985.6,P
1507591135.1,286046985.4,P
1507591155.9,286046986.7,N
1507591175.7,286046986.0,Y
1507591195.6,286046997.6,P
1507591215.4,286046997.6,N
1507591235.2,286046999.2,N
1507591255.0,286047001.2,N
1507591255.9,286047001.2,N
1507591275.8,286047000.5,N
1507591295.6,286047000.7,N
1507591315.4,286047000.2,N
1507591335.3,286046999.4,N
1507591355.1,286046996.9,N
1507591375.8,286046999.0,N
1507591395.7,286046998.4,N
1507591415.5,286046996.7,N
1507591435.3,286046996.9,N
1507591455.2,286046997.1,N
1507591475.9,286046999.5,N
1507591495.7,286047000.7,N
1507591515.6,286046998.2,N
1507591535.4,286046999.2,N
1507591555.2,286047001.1,N
1507591575.0,286046998.5,N
1507591576.0,286046998.5,N
1507591595.8,286047000.7,N
1507591615.6,286047002.5,N
1507591635.4,286047002.3,N
1507591655.3,286047002.0,N
1507591675.1,286047001.7,N
1507591695.8,286047002.2,N
1507591715.7,286047001.5,N
1507591735.5,286047004.1,N
1507591755.3,286047004.0,N
1507591775.2,286047002.8,N
1507591795.9,286047001.5,N
1507591815.7,286047005.7,N
1507591835.6,286047005.5,N
1507591855.4,286047005.8,N
1507591875.2,286047009.1,Y
1507591895.1,286047006.4,P
1507591896.0,286047006.4,N
1507591915.8,286047004.9,N
1507591935.6,286047006.9,N
1507591955.5,286047006.3,N
1507591975.3,286047008.8,Y
1507591995.1,286047000.7,P
1507592015.9,286047000.9,N
1507592035.7,286047000.3,N
1507592055.5,286047001.1,N
1507592075.3,286046999.7,N
1507592095.2,286047001.8,N
1507592115.0,286047002.8,N
1507592115.9,286047002.8,N
1507592135.7,286046999.8,N
1507592155.6,286047002.0,N
1507592175.4,286047001.6,N
1507592195.2,286047001.1,N
1507592215.1,286046998.5,N
1507592216.0,286046998.5,N
1507592235.8,286047002.7,N
1507592255.6,286047003.9,N
1507592275.5,286046999.7,N
1507592295.3,286047002.3,N
1507592315.1,286047001.7,N
1507592335.9,286047002.0,N
1507592355.7,286047002.7,N
1507592375.5,286046999.7,N
1507592395.3,286047000.4,N
1507592415.2,286046998.5,N
1507592435.0,286047000.3,N
1507592435.9,286047000.3,N
1507592455.7,286047000.3,N
1507592475.6,286047000.5,N
1507592495.4,286047000.5,N
1507592515.2,286047001.9,N
1507592535.1,286047001.4,N
1507592536.0,286047001.4,N
1507592555.8,286047003.5,N
1507592575.6,286047003.8,N
1507592595.5,286047002.1,N
1507592615.3,286047001.2,N
1507592635.1,286046998.6,N
1507592655.9,286046998.2,N
1507592675.7,286047000.0,N
1507592695.5,286047002.8,N
1507592715.3,286047002.2,N
1507592735.2,286047001.3,N
1507592755.0,286047000.1,N
1507592755.9,286047000.1,N
1507592775.7,286046999.8,N
1507592795.6,286047005.0,Y
1507592815.4,286047004.6,P
1507592835.2,286047006.5,P
1507592855.1,286047012.6,P
1507592856.0,286047012.6,N
1507592875.8,286047015.0,Y
1507592895.7,286047007.2,P
1507592915.5,286047006.3,P
1507592935.3,286047008.3,P
1507592955.2,286047009.4,Y
1507592975.9,286047004.3,P
1507592995.7,286047001.3,N
1507593015.5,286047003.6,N
1507593035.4,286047004.1,N
1507593055.2,286047004.2,N
1507593075.0,286047002.0,N
1507593075.9,286047002.0,N
1507593095.8,286047005.2,N
1507593115.6,286047005.2,N
1507593135.4,286047006.5,Y
1507593155.3,286047004.0,P
1507593175.1,286047003.3,P
1507593195.8,286046999.7,N
1507593215.7,286047002.3,N
1507593235.5,286046998.2,N
1507593255.3,286046997.5,N
1507593275.2,286046999.0,N
1507593295.9,286046997.2,N
1507593315.7,286046997.5,N
1507593335.5,286046998.3,N
1507593355.4,286046996.8,N
1507593375.2,286046997.9,N
1507593395.0,286046993.6,N
1507593395.9,286046993.6,N
1507593415.8,286046996.0,N
1507593435.6,286046995.1,N
1507593455.4,286046995.0,N
1507593475.3,286046997.4,N
1507593495.1,286046995.3,N
1507593496.0,286046995.3,N
1507593515.8,286046994.6,N
1507593535.7,286046991.1,N
1507593555.5,286046986.9,Y
1507593575.3,286046989.1,P
1507593595.2,286046985.6,P
